Regional Weather Roundup
Issued by NWS

Home | Current Version | Previous Version | Graphics & Text | Print | Product List | Glossary On
Versions: 1 2 3 4 5 6 7 8 9 10 11 12 13 14 15 16 17 18 19 20 21 22 23 24 25 26 27 28 29 30 31 32 33 34 35 36 37 38 39 40 41 42 43 44 45 46 47 48 49 50
873
ASUS43 KFSD 222110
RWRSD

WEATHER ROUNDUP FOR SOUTH DAKOTA
NATIONAL WEATHER SERVICE SIOUX FALLS SD
400 PM CDT THU JUN 22 2017

NOTE: "FAIR" INDICATES FEW OR NO CLOUDS BELOW 12,000 FEET WITH NO
SIGNIFICANT WEATHER AND/OR OBSTRUCTIONS TO VISIBILITY.


SDZ001>005-009-010-012>017-222200-
NORTHWEST AND NORTH CENTRAL SOUTH DAKOTA

CITY           SKY/WX    TMP DP  RH WIND       PRES   REMARKS
BUFFALO          N/A     73  32  22 NW29G37   29.85F
FAITH            N/A     78  38  23 NW17      29.88S
MOBRIDGE       MOSUNNY   79  35  20 NW13      29.80R
$$

SDZ012>016-024>037-041>051-057-063-072>074-222200-
SOUTHWEST AND SOUTH CENTRAL SOUTH DAKOTA

CITY           SKY/WX    TMP DP  RH WIND       PRES   REMARKS
RAPID CTY ARPT SUNNY     76  39  26 N10G26    29.93F
PIERRE         MOSUNNY   77  47  34 NW8       29.83S
CUSTER         CLOUDY    64  38  38 E9        30.01S
ELLSWORTH AFB  SUNNY     75  40  28 N16G22    29.92
PHILIP         SUNNY     80  44  27 N13G18    29.86S
PINE RIDGE     SUNNY     78  52  40 N15G25    29.91F
SPEARFISH      FAIR      70  41  35 W9        29.98S
WINNER         MOCLDY    79  46  31 N12G21    29.84F
$$

SDZ004>011-016>023-039-040-222200-
NORTHEAST SOUTH DAKOTA

CITY           SKY/WX    TMP DP  RH WIND       PRES   REMARKS
ABERDEEN       PTSUNNY   77  48  35 W7        29.78F
WATERTOWN      SUNNY     71  54  54 VRB5      29.81S
BROOKINGS      CLOUDY    71  49  45 NE8       29.81R
SISSETON         N/A     79  45  29 W6        29.76S
$$

SDZ017-020-022-023-036>040-048>070-222200-
SOUTHEAST SOUTH DAKOTA

CITY           SKY/WX    TMP DP  RH WIND       PRES   REMARKS
SIOUX FALLS    CLOUDY    71  64  78 NE14      29.77R
HURON          MOSUNNY   75  54  47 N5        29.82R
CHAMBERLAIN    PTSUNNY   76  49  38 NE7       29.83S
MITCHELL       CLOUDY    76  56  49 N13       29.80F
$$

ABBREVIATIONS USED IN REMARKS
   TC - TEMPERATURE IN CELSIUS
  WCI - WIND CHILL INDEX
   HX - HEAT INDEX
  VSB - VISIBILITY





USA.gov is the U.S. government's official web portal to all federal, state and local government web resources and services.